Location: Artiguedieu
(43.5000°N, 0.5454°E)
Time: 15:18:30
(UTC+00:00)

SR - Pass Details

Date: 07 August 2021
Orbit: 581 x 874 km, 66.7° (Epoch: 18 September)

Event Time Altitude Azimuth Distance (km) Brightness Sun altitude
Exits shadow 03:50:33 - 188° (S) 3,309 ? -10.8°
Reaches altitude 10° 03:52:50 10° 182° (S) 2,492 ? -10.5°
Maximum altitude 03:58:14 42° 113° (ESE) 1,183 ? -9.7°
Drops below altitude 10° 04:03:23 10° 45° (NE) 2,379 ? -8.9°
Sets 04:05:50 0° 38° (NE) 3,268 ? -8.5°
